Time,TemperatureF,DewpointF,PressureIn,WindDirection,WindDirectionDegrees,WindSpeedMPH,WindSpeedGustMPH,Humidity,HourlyPrecipIn,Conditions,Clouds,dailyrainin,SolarRadiationWatts/m^2,SoftwareType,DateUTC
2013-12-01 00:14:00,38.0,31.0,31.76,SSE,153,6.0,9.0,75,0.00,,,0.00,0,weatherlink.com 1.10,2013-12-01 07:14:00,
2013-12-01 00:29:00,38.1,31.0,31.76,South,171,5.0,9.0,75,0.00,,,0.00,0,weatherlink.com 1.10,2013-12-01 07:29:00,
2013-12-01 00:44:00,38.2,31.0,31.76,SSE,163,10.0,13.0,75,0.00,,,0.00,0,weatherlink.com 1.10,2013-12-01 07:44:00,
2013-12-01 01:00:00,38.0,31.0,31.76,South,173,8.0,12.0,75,0.00,,,0.00,0,weatherlink.com 1.10,2013-12-01 08:00:00,
2013-12-01 01:15:00,38.2,31.0,31.75,SSE,163,5.0,12.0,74,0.00,,,0.00,0,weatherlink.com 1.10,2013-12-01 08:15:00,
2013-12-01 01:30:00,38.2,31.0,31.74,SSE,153,10.0,11.0,74,0.00,,,0.00,0,weatherlink.com 1.10,2013-12-01 08:30:00,
2013-12-01 01:45:00,38.4,31.0,31.73,SSE,157,9.0,12.0,74,0.00,,,0.00,0,weatherlink.com 1.10,2013-12-01 08:45:00,
2013-12-01 02:00:00,38.4,31.0,31.73,SSE,151,8.0,11.0,74,0.00,,,0.00,0,weatherlink.com 1.10,2013-12-01 09:00:00,
2013-12-01 02:15:00,38.5,31.0,31.72,SSE,159,6.0,13.0,75,0.00,,,0.00,0,weatherlink.com 1.10,2013-12-01 09:15:00,
2013-12-01 02:30:00,38.4,31.0,31.72,SE,145,5.0,11.0,75,0.00,,,0.00,0,weatherlink.com 1.10,2013-12-01 09:30:00,
2013-12-01 02:45:00,38.4,31.0,31.72,South,175,4.0,6.0,75,0.00,,,0.00,0,weatherlink.com 1.10,2013-12-01 09:45:00,
2013-12-01 03:00:00,38.9,31.0,31.72,SSE,155,5.0,10.0,74,0.00,,,0.00,0,weatherlink.com 1.10,2013-12-01 10:00:00,
2013-12-01 03:15:00,38.9,31.0,31.72,South,187,6.0,13.0,74,0.00,,,0.00,0,weatherlink.com 1.10,2013-12-01 10:15:00,
2013-12-01 03:30:00,37.6,31.0,31.72,SSE,167,6.0,7.0,77,0.00,,,0.00,0,weatherlink.com 1.10,2013-12-01 10:30:00,
2013-12-01 03:45:00,37.9,32.0,31.71,SSE,168,6.0,9.0,79,0.00,,,0.00,0,weatherlink.com 1.10,2013-12-01 10:45:00,
2013-12-01 04:00:00,38.2,33.0,31.69,SSE,163,7.0,12.0,80,0.00,,,0.00,0,weatherlink.com 1.10,2013-12-01 11:00:00,
2013-12-01 04:15:00,38.2,33.0,31.69,South,182,10.0,13.0,80,0.00,,,0.00,0,weatherlink.com 1.10,2013-12-01 11:15:00,
2013-12-01 04:30:00,38.0,32.0,31.68,South,190,8.0,11.0,80,0.00,,,0.00,0,weatherlink.com 1.10,2013-12-01 11:30:00,
2013-12-01 04:45:00,38.2,33.0,31.67,SSW,198,3.0,8.0,80,0.00,,,0.00,0,weatherlink.com 1.10,2013-12-01 11:45:00,
2013-12-01 05:00:00,37.6,32.0,31.67,SSW,198,2.0,5.0,81,0.00,,,0.00,0,weatherlink.com 1.10,2013-12-01 12:00:00,
2013-12-01 05:15:00,37.1,32.0,31.67,South,184,6.0,6.0,82,0.00,,,0.00,0,weatherlink.com 1.10,2013-12-01 12:15:00,
2013-12-01 05:30:00,37.4,33.0,31.66,South,173,5.0,10.0,83,0.00,,,0.00,0,weatherlink.com 1.10,2013-12-01 12:30:00,
2013-12-01 05:45:00,37.5,33.0,31.64,SSE,165,8.0,13.0,83,0.00,,,0.00,0,weatherlink.com 1.10,2013-12-01 12:45:00,
2013-12-01 06:00:00,37.1,33.0,31.63,South,173,9.0,18.0,84,0.00,,,0.00,0,weatherlink.com 1.10,2013-12-01 13:00:00,
2013-12-01 06:15:00,37.0,33.0,31.62,SSE,165,16.0,18.0,86,0.00,,,0.00,0,weatherlink.com 1.10,2013-12-01 13:15:00,
2013-12-01 06:30:00,37.0,34.0,31.61,South,174,10.0,14.0,87,0.00,,,0.00,0,weatherlink.com 1.10,2013-12-01 13:30:00,
2013-12-01 06:45:00,37.2,33.0,31.59,SSE,161,10.0,18.0,86,0.00,,,0.00,0,weatherlink.com 1.10,2013-12-01 13:45:00,
2013-12-01 07:00:00,37.4,34.0,31.58,SSE,157,13.0,16.0,86,0.00,,,0.00,0,weatherlink.com 1.10,2013-12-01 14:00:00,
2013-12-01 07:15:00,37.2,33.0,31.57,SSE,160,15.0,18.0,85,0.00,,,0.00,0,weatherlink.com 1.10,2013-12-01 14:15:00,
2013-12-01 07:30:00,37.7,33.0,31.55,South,171,17.0,24.0,83,0.00,,,0.00,0,weatherlink.com 1.10,2013-12-01 14:30:00,
2013-12-01 07:46:00,37.6,33.0,31.54,South,170,16.0,24.0,83,0.00,,,0.00,0,weatherlink.com 1.10,2013-12-01 14:46:00,
2013-12-01 08:01:00,37.5,33.0,31.54,SSE,163,17.0,25.0,83,0.00,,,0.00,0,weatherlink.com 1.10,2013-12-01 15:01:00,
2013-12-01 08:16:00,37.5,33.0,31.52,South,173,15.0,25.0,83,0.00,,,0.00,0,weatherlink.com 1.10,2013-12-01 15:16:00,
2013-12-01 08:31:00,37.4,33.0,31.52,SSE,168,18.0,25.0,83,0.00,,,0.00,5,weatherlink.com 1.10,2013-12-01 15:31:00,
2013-12-01 08:46:00,37.3,33.0,31.51,SSE,161,18.0,25.0,84,0.00,,,0.00,11,weatherlink.com 1.10,2013-12-01 15:46:00,
2013-12-01 09:01:00,37.0,33.0,31.50,SSE,155,14.0,27.0,86,0.00,,,0.00,12,weatherlink.com 1.10,2013-12-01 16:01:00,
2013-12-01 09:16:00,36.8,34.0,31.49,SSE,161,18.0,23.0,88,0.00,,,0.00,18,weatherlink.com 1.10,2013-12-01 16:16:00,
2013-12-01 09:31:00,36.9,34.0,31.48,South,176,18.0,27.0,88,0.00,,,0.00,21,weatherlink.com 1.10,2013-12-01 16:31:00,
2013-12-01 09:46:00,36.6,34.0,31.48,South,171,21.0,27.0,89,0.01,,,0.01,21,weatherlink.com 1.10,2013-12-01 16:46:00,
2013-12-01 10:01:00,36.8,34.0,31.46,South,178,19.0,28.0,90,0.01,,,0.01,26,weatherlink.com 1.10,2013-12-01 17:01:00,
2013-12-01 10:16:00,36.7,34.0,31.46,South,173,18.0,31.0,90,0.02,,,0.02,35,weatherlink.com 1.10,2013-12-01 17:16:00,
2013-12-01 10:31:00,36.5,34.0,31.45,South,173,25.0,30.0,91,0.03,,,0.03,30,weatherlink.com 1.10,2013-12-01 17:31:00,
2013-12-01 10:46:00,36.6,34.0,31.44,SSE,160,20.0,28.0,91,0.03,,,0.04,42,weatherlink.com 1.10,2013-12-01 17:46:00,
2013-12-01 11:01:00,36.7,35.0,31.43,SSE,152,23.0,25.0,92,0.03,,,0.04,39,weatherlink.com 1.10,2013-12-01 18:01:00,
2013-12-01 11:16:00,37.0,35.0,31.42,SSE,167,21.0,28.0,91,0.03,,,0.05,37,weatherlink.com 1.10,2013-12-01 18:16:00,
2013-12-01 11:31:00,37.1,35.0,31.41,SSE,160,27.0,31.0,91,0.02,,,0.05,54,weatherlink.com 1.10,2013-12-01 18:31:00,
2013-12-01 11:46:00,37.3,35.0,31.40,SSE,167,20.0,30.0,91,0.01,,,0.05,39,weatherlink.com 1.10,2013-12-01 18:46:00,
2013-12-01 12:17:00,37.3,35.0,31.38,SSW,194,9.0,20.0,92,0.00,,,0.05,44,weatherlink.com 1.10,2013-12-01 19:17:00,
2013-12-01 12:31:00,37.9,35.0,31.38,South,176,22.0,29.0,90,0.00,,,0.05,49,weatherlink.com 1.10,2013-12-01 19:31:00,
2013-12-01 12:47:00,38.0,35.0,31.38,SSE,159,20.0,25.0,90,0.00,,,0.05,76,weatherlink.com 1.10,2013-12-01 19:47:00,
2013-12-01 13:48:00,38.9,36.0,31.38,SSE,167,19.0,26.0,89,0.00,,,0.05,76,weatherlink.com 1.10,2013-12-01 20:48:00,
2013-12-01 14:02:00,38.9,36.0,31.37,South,186,16.0,26.0,89,0.00,,,0.05,60,weatherlink.com 1.10,2013-12-01 21:02:00,
2013-12-01 14:17:00,-999.0,-99.9,31.38,North,-999,-999.0,-999.0,-999,0.00,,,0.05,,weatherlink.com 1.10,2013-12-01 21:17:00,
2013-12-01 14:32:00,39.1,36.0,31.36,South,177,12.0,25.0,88,0.00,,,0.05,37,weatherlink.com 1.10,2013-12-01 21:32:00,
2013-12-01 14:47:00,38.7,36.0,31.37,South,173,12.0,23.0,89,0.00,,,0.05,32,weatherlink.com 1.10,2013-12-01 21:47:00,
2013-12-01 15:02:00,38.4,36.0,31.38,SSW,192,11.0,20.0,90,0.00,,,0.05,19,weatherlink.com 1.10,2013-12-01 22:02:00,
2013-12-01 15:17:00,38.2,36.0,31.38,South,179,12.0,19.0,90,0.00,,,0.05,25,weatherlink.com 1.10,2013-12-01 22:17:00,
2013-12-01 15:32:00,38.3,36.0,31.38,South,180,10.0,19.0,90,0.00,,,0.05,18,weatherlink.com 1.10,2013-12-01 22:32:00,
2013-12-01 15:47:00,38.0,35.0,31.39,South,178,17.0,21.0,90,0.00,,,0.05,16,weatherlink.com 1.10,2013-12-01 22:47:00,
2013-12-01 16:02:00,37.7,35.0,31.38,SSW,200,8.0,16.0,91,0.00,,,0.05,9,weatherlink.com 1.10,2013-12-01 23:02:00,
2013-12-01 16:17:00,37.8,36.0,31.38,SSE,161,15.0,21.0,91,0.00,,,0.05,5,weatherlink.com 1.10,2013-12-01 23:17:00,
2013-12-01 16:32:00,37.4,35.0,31.39,SSW,198,10.0,19.0,92,0.00,,,0.05,0,weatherlink.com 1.10,2013-12-01 23:32:00,
2013-12-01 16:47:00,37.6,36.0,31.39,South,191,11.0,19.0,92,0.00,,,0.05,0,weatherlink.com 1.10,2013-12-01 23:47:00,
2013-12-01 17:02:00,37.5,35.0,31.39,SSE,153,15.0,18.0,92,0.01,,,0.06,0,weatherlink.com 1.10,2013-12-02 00:02:00,
2013-12-01 17:17:00,37.7,35.0,31.39,SSE,157,17.0,22.0,91,0.01,,,0.06,0,weatherlink.com 1.10,2013-12-02 00:17:00,
2013-12-01 17:32:00,37.8,36.0,31.40,South,186,10.0,19.0,91,0.01,,,0.06,0,weatherlink.com 1.10,2013-12-02 00:32:00,
2013-12-01 17:47:00,37.6,36.0,31.40,South,173,17.0,19.0,92,0.02,,,0.07,0,weatherlink.com 1.10,2013-12-02 00:47:00,
2013-12-01 18:02:00,37.6,36.0,31.40,SSW,207,8.0,17.0,92,0.02,,,0.08,0,weatherlink.com 1.10,2013-12-02 01:02:00,
2013-12-01 18:17:00,37.5,35.0,31.40,South,186,7.0,12.0,92,0.02,,,0.08,0,weatherlink.com 1.10,2013-12-02 01:17:00,
2013-12-01 18:32:00,37.6,36.0,31.40,SSE,149,9.0,20.0,92,0.02,,,0.08,0,weatherlink.com 1.10,2013-12-02 01:32:00,
2013-12-01 18:47:00,37.4,35.0,31.40,SSE,164,11.0,16.0,92,0.02,,,0.09,0,weatherlink.com 1.10,2013-12-02 01:47:00,
2013-12-01 19:02:00,37.5,35.0,31.39,SSE,160,13.0,14.0,92,0.01,,,0.09,0,weatherlink.com 1.10,2013-12-02 02:02:00,
2013-12-01 19:17:00,37.3,35.0,31.39,South,183,12.0,14.0,92,0.01,,,0.09,0,weatherlink.com 1.10,2013-12-02 02:17:00,
2013-12-01 19:32:00,37.3,35.0,31.39,SSE,163,10.0,25.0,92,0.02,,,0.10,0,weatherlink.com 1.10,2013-12-02 02:32:00,
2013-12-01 19:47:00,37.0,35.0,31.38,South,171,15.0,21.0,92,0.02,,,0.11,0,weatherlink.com 1.10,2013-12-02 02:47:00,
2013-12-01 20:02:00,36.9,35.0,31.36,South,174,15.0,24.0,93,0.03,,,0.12,0,weatherlink.com 1.10,2013-12-02 03:02:00,
2013-12-01 20:17:00,36.7,35.0,31.36,South,190,18.0,23.0,93,0.03,,,0.12,0,weatherlink.com 1.10,2013-12-02 03:17:00,
2013-12-01 20:32:00,36.5,35.0,31.35,South,188,18.0,22.0,93,0.02,,,0.12,0,weatherlink.com 1.10,2013-12-02 03:32:00,
2013-12-01 20:47:00,36.3,35.0,31.34,South,184,12.0,22.0,93,0.02,,,0.13,0,weatherlink.com 1.10,2013-12-02 03:47:00,
2013-12-01 21:02:00,36.3,35.0,31.33,South,179,15.0,23.0,93,0.02,,,0.14,0,weatherlink.com 1.10,2013-12-02 04:02:00,
2013-12-01 21:17:00,36.2,35.0,31.32,South,186,17.0,22.0,94,0.02,,,0.14,0,weatherlink.com 1.10,2013-12-02 04:17:00,
2013-12-01 21:32:00,36.2,35.0,31.32,South,181,17.0,22.0,94,0.02,,,0.14,0,weatherlink.com 1.10,2013-12-02 04:32:00,
2013-12-01 21:47:00,36.2,35.0,31.32,South,175,11.0,20.0,94,0.01,,,0.14,0,weatherlink.com 1.10,2013-12-02 04:47:00,
2013-12-01 22:03:00,36.4,35.0,31.30,South,174,13.0,26.0,94,0.01,,,0.15,0,weatherlink.com 1.10,2013-12-02 05:03:00,
2013-12-01 22:18:00,36.1,34.0,31.29,South,176,22.0,24.0,93,0.02,,,0.16,0,weatherlink.com 1.10,2013-12-02 05:18:00,
2013-12-01 22:33:00,36.4,35.0,31.29,SSE,166,18.0,26.0,93,0.02,,,0.16,0,weatherlink.com 1.10,2013-12-02 05:33:00,
2013-12-01 22:48:00,36.3,35.0,31.28,South,184,22.0,30.0,93,0.02,,,0.16,0,weatherlink.com 1.10,2013-12-02 05:48:00,
2013-12-01 23:03:00,36.2,34.0,31.28,South,177,15.0,26.0,93,0.01,,,0.16,0,weatherlink.com 1.10,2013-12-02 06:03:00,
2013-12-01 23:18:00,36.2,35.0,31.27,South,169,12.0,22.0,94,0.00,,,0.16,0,weatherlink.com 1.10,2013-12-02 06:18:00,
2013-12-01 23:33:00,36.3,35.0,31.26,SSE,167,20.0,26.0,94,0.01,,,0.17,0,weatherlink.com 1.10,2013-12-02 06:33:00,
2013-12-01 23:48:00,36.5,35.0,31.26,South,172,18.0,28.0,94,0.01,,,0.17,0,weatherlink.com 1.10,2013-12-02 06:48:00,